This demonstration page uses our WeatherBlox Daily Observations layout. Learn more.

38.88101, -77.10428

Hourly Observations for February 17, 2020

Temp ( °F °C ) Dew Point ( °F °C ) Humidity (%) Winds ( mph kmh ) Pressure ( in mb ) Visibility ( mi km ) Precip ( " mm )
12:52 am 00:52 Cloudy 41 5 38 3.3 89 89 Calm 30.12 1020 10 16.0934 0 0
1:52 am 01:52 Mostly Cloudy 38 3.3 33 0.6 83 83 NNW 7 11 30.13 1020 10 16.0934 0 0
2:52 am 02:52 Cloudy 41 5 34 1.1 76 76 N 3 6 30.13 1020 10 16.0934 0 0
3:52 am 03:52 Cloudy 41 5 34 1.1 76 76 NE 6 9 30.14 1021 10 16.0934 0 0
4:52 am 04:52 Cloudy 42 5.6 32 0 68 68 E 3 6 30.17 1022 10 16.0934 0 0
5:52 am 05:52 Mostly Clear 39 3.9 30 -1.1 70 70 NNE 6 9 30.19 1023 10 16.0934 0 0
6:52 am 06:52 Mostly Clear 38 3.3 28 -2.2 68 68 N 6 9 30.22 1023 10 16.0934 0 0
7:52 am 07:52 Mostly Sunny 41 5 31 -0.6 67 67 N 8 13 30.26 1025 10 16.0934 0 0
8:52 am 08:52 Mostly Cloudy 45 7.2 30 -1.1 56 56 NNE 12 19 30.28 1025 10 16.0934 0 0
9:52 am 09:52 Mostly Cloudy 47 8.3 30 -1.1 52 52 NNE 13 20 30.28 1025 10 16.0934 0 0
10:52 am 10:52 Mostly Cloudy 50 10 29 -1.7 44 44 NNE 10 17 30.29 1026 10 16.0934 0 0
11:52 am 11:52 Sunny 51 10.6 28 -2.2 41 41 E 5 7 30.29 1026 10 16.0934 0 0
12:12 pm 12:12 Mostly Cloudy 51 10.6 26 -3.3 38 38 ENE 5 7 30.29 1026 10 16.0934 0 0
12:52 pm 12:52 Mostly Cloudy 52 11.1 26 -3.3 37 37 E 3 6 30.28 1025 10 16.0934 0 0
1:52 pm 13:52 Mostly Cloudy 54 12.2 26 -3.3 34 34 Calm 30.26 1025 10 16.0934 0 0
2:52 pm 14:52 Mostly Cloudy 55 12.8 25 -3.9 31 31 NE 3 6 30.25 1024 10 16.0934 0 0
3:52 pm 15:52 Mostly Sunny 54 12.2 26 -3.3 34 34 ESE 8 13 30.24 1024 10 16.0934 0 0
4:52 pm 16:52 Mostly Sunny 52 11.1 27 -2.8 38 38 ESE 13 20 30.24 1024 10 16.0934 0 0
5:52 pm 17:52 Partly Cloudy 48 8.9 25 -3.9 41 41 E 9 15 30.27 1025 10 16.0934 0 0
6:52 pm 18:52 Mostly Clear 47 8.3 25 -3.9 42 42 E 8 13 30.29 1026 10 16.0934 0 0
7:52 pm 19:52 Partly Cloudy 47 8.3 28 -2.2 48 48 E 3 6 30.3 1026 10 16.0934 0 0
8:52 pm 20:52 Partly Cloudy 46 7.8 25 -3.9 44 44 Calm 30.31 1026 10 16.0934 0 0
9:52 pm 21:52 Partly Cloudy 45 7.2 27 -2.8 49 49 SSE 5 7 30.3 1026 10 16.0934 0 0
10:52 pm 22:52 Partly Cloudy 44 6.7 28 -2.2 53 53 Calm 30.3 1026 10 16.0934 0 0
11:52 pm 23:52 Cloudy 44 6.7 28 -2.2 53 53 Calm 30.29 1026 10 16.0934 0 0

Powered by AerisWeather